Location: Cheching
(60.0667°N, 164.2167°W)
Time: 21:20:10
(UTC+00:00)

LilacSat-2 - Pass Details

Date: 22 January 2021
Orbit: 512 x 534 km, 97.5° (Epoch: 07 March)

Event Time Altitude Azimuth Distance (km) Brightness Sun altitude
Rises 15:39:14 0° 25° (NNE) 2,689 ? -27.9°
Reaches altitude 10° 15:42:05 10° 48° (NE) 1,796 ? -27.6°
Maximum altitude 15:44:29 16° 86° (E) 1,465 ? -27.3°
Drops below altitude 10° 15:46:53 10° 125° (SE) 1,792 ? -27.0°
Sets 15:49:43 0° 148° (SSE) 2,679 ? -26.6°
